Mayo, Yukon Territory

3:10 AM PDT on March 25, 2017 (GMT -0700)
Mayo

Weather History for CYMA - January, 2014

Change the Weather History Date:

Thursday, January 16, 2014

  Actual Average Record
Temperature  
Mean Temperature 14 °F -  
Max Temperature 27 °F 1 °F 33 °F (2015)
Min Temperature 0 °F -20 °F 8 °F (2017)
Degree Days  
Heating Degree Days 52    
Moisture  
Dew Point 15 °F    
Average Humidity 89    
Maximum Humidity 100    
Minimum Humidity 80    
Precipitation  
Precipitation 0.04 in 0.02 in - ()
Sea Level Pressure  
Sea Level Pressure 29.75 in    
Wind  
Wind Speed 4 mph ()    
Max Wind Speed 15 mph    
Max Gust Speed 22 mph    
Visibility 13.8 miles    
Events Snow    
Averages and records for this station are not official NWS values.
T = Trace of Precipitation, MM = Missing Value Source: Averaged Metar Reports

Daily Weather History Graph

Daily Weather History Graph

Search for Another Location

Airport or City:

Trip Planner

Search our weather history database for the weather conditions in past years. The results will help you decide how hot, cold, wet, or windy it might be!

Date:

Astronomy

Jan. 16, 2014 Rise Set
Actual Time 10:21 AM PST 4:05 PM PST
Civil Twilight 9:17 AM PST 5:09 PM PST
Nautical Twilight 8:15 AM PST 6:12 PM PST
Astronomical Twilight 7:18 AM PST 7:08 PM PST
Moon 5:49 PM PST (1/16) 9:39 AM PST (1/16)
Length of Visible Light 7h 52m
Length of Day
5h 43m
Full, 100% of the Moon is Illuminated
Jan 16
Full
Jan 23
Last Quarter
Jan 30
New
Feb 6
First Quarter
Feb 14
Full

Hourly Weather History & Observations

Time (PST) Temp. Windchill Dew Point Humidity Pressure Visibility Wind Dir Wind Speed Gust Speed Precip Events Conditions
12:00 AM 12.2 °F - 8.6 °F 85% 29.95 in 3.0 mi East 2.3 mph - N/A Snow Light Snow
1:00 AM 10.4 °F - 8.6 °F 92% 29.94 in 8.0 mi Calm Calm - N/A Snow Light Snow
2:00 AM 8.6 °F - 5.0 °F 85% 29.93 in 20.0 mi Calm Calm - N/A Snow Light Snow
2:25 AM 6.8 °F - 5.0 °F 92% 29.92 in 20.0 mi Calm Calm - N/A   Overcast
3:00 AM 8.6 °F - 5.0 °F 85% 29.91 in 20.0 mi Calm Calm - N/A   Overcast
4:00 AM 11 °F - 8 °F 84% 29.89 in 19 mi ENE 4.6 mph - -   Overcast
4:00 AM 10.4 °F 2.2 °F 8.6 °F 92% 29.89 in 20.0 mi East 4.6 mph - N/A   Overcast
5:00 AM 12.2 °F 6.1 °F 8.6 °F 85% 29.86 in 20.0 mi East 3.5 mph - N/A   Overcast
6:00 AM 12.2 °F 2.9 °F 8.6 °F 85% 29.84 in 20.0 mi ESE 5.8 mph - N/A   Overcast
7:00 AM 12.2 °F 4.3 °F 10.4 °F 92% 29.81 in 20.0 mi East 4.6 mph - N/A   Overcast
8:00 AM 14.0 °F 3.9 °F 12.2 °F 93% 29.77 in 20.0 mi ENE 6.9 mph - N/A   Overcast
9:00 AM 15.8 °F 10.2 °F 14.0 °F 93% 29.74 in 20.0 mi NE 3.5 mph - N/A   Overcast
10:00 AM 17 °F - 14 °F 84% 29.72 in 19 mi East 3.5 mph - -   Overcast
10:00 AM 17.6 °F 10.7 °F 14.0 °F 86% 29.71 in 20.0 mi ENE 4.6 mph - N/A   Overcast
10:47 AM 17.6 °F 9.3 °F 15.8 °F 93% 29.69 in 2.0 mi East 5.8 mph - N/A Snow Light Snow
11:00 AM 17.6 °F 10.7 °F 14.0 °F 86% 29.68 in 1.8 mi East 4.6 mph - N/A Snow Light Snow
11:49 AM 24.8 °F 14.6 °F 21.2 °F 86% 29.62 in 2.0 mi NNE 10.4 mph - N/A Snow Snow
12:00 PM 24.8 °F 15.3 °F 21.2 °F 86% 29.61 in 2.5 mi NE 9.2 mph - N/A Snow Light Snow
1:00 PM 24.8 °F 14.0 °F 21.2 °F 86% 29.57 in 20.0 mi NE 11.5 mph 19.6 mph N/A Snow Light Snow
1:37 PM 26.6 °F 14.7 °F 23.0 °F 86% 29.56 in 20.0 mi North 15.0 mph 21.9 mph N/A   Overcast
2:00 PM 26.6 °F 16.8 °F 23.0 °F 86% 29.56 in 20.0 mi NNE 10.4 mph 18.4 mph N/A Snow Light Snow
3:00 PM 28.4 °F 20.4 °F 23.0 °F 80% 29.58 in 10.0 mi NNE 8.1 mph - N/A Snow Light Snow
3:50 PM 26.6 °F 22.6 °F 24.8 °F 93% 29.58 in 1.8 mi NE 3.5 mph - N/A Snow Light Snow
4:00 PM 27 °F - 25 °F 90% 29.59 in 1 mi North 4.6 mph - -  
4:00 PM 26.6 °F 19.1 °F 24.8 °F 93% 29.58 in 1.5 mi North 6.9 mph - N/A Snow Light Snow
5:00 PM 26.6 °F 20.0 °F 24.8 °F 93% 29.63 in 1.0 mi NNW 5.8 mph - N/A Snow Light Snow
5:33 PM - - - N/A% - 5.0 mi NNE 3.5 mph - N/A   Unknown
6:00 PM 26.6 °F - 24.8 °F 93% 29.65 in 5.0 mi NNE 2.3 mph - N/A Snow Light Snow
6:20 PM - - - N/A% - 20.0 mi SW 3.5 mph - N/A   Overcast
7:00 PM 21.2 °F 16.4 °F 21.2 °F 100% 29.71 in 20.0 mi Variable 3.5 mph - N/A   Mostly Cloudy
8:00 PM 15.8 °F - 14.0 °F 93% 29.75 in 20.0 mi Variable 2.3 mph - N/A   Mostly Cloudy
9:00 PM 14.0 °F - 12.2 °F 93% 29.83 in 20.0 mi Calm Calm - N/A   Mostly Cloudy
10:00 PM 13 °F - 10 °F 84% 29.87 in 19 mi SSW 2.3 mph - -  
10:00 PM 14.0 °F 8.2 °F 10.4 °F 86% 29.87 in 20.0 mi WNW 3.5 mph - N/A   Mostly Cloudy
11:00 PM 15.8 °F 10.2 °F 12.2 °F 86% 29.91 in 20.0 mi WNW 3.5 mph - N/A   Mostly Cloudy